Williston, ND

7:23 PM CDT on May 22, 2017 (GMT -0500)
Sloulin International

Weather History for KISN - March, 2013

Change the Weather History Date:

Sunday, March 17, 2013

  Actual Average Record
Temperature  
Mean Temperature 15 °F 30 °F  
Max Temperature 24 °F 41 °F 70 °F (1910)
Min Temperature 6 °F 19 °F -18 °F (1902)
Degree Days  
Heating Degree Days 50 35  
Month to date heating degree days 760 665  
Since 1 July heating degree days 7348 7433  
Cooling Degree Days 0 0  
Month to date cooling degree days 0 0  
Year to date cooling degree days 0 0  
Moisture  
Dew Point 14 °F    
Average Humidity 88    
Maximum Humidity 100    
Minimum Humidity 76    
Precipitation  
Precipitation 0.27 in 0.03 in 1.39 in (2003)
Month to date precipitation 1.00 0.37  
Year to date precipitation 1.57 1.35  
Snow  
Snow 4.10 in - - ()
Month to date snowfall 11.9  
Snow Depth 6.00 in    
Sea Level Pressure  
Sea Level Pressure 29.67 in    
Wind  
Wind Speed 16 mph (NE)    
Max Wind Speed 35 mph    
Max Gust Speed 43 mph    
Visibility 4 miles    
Events Fog , Snow    
T = Trace of Precipitation, MM = Missing Value Source: NWS Daily Summary

Daily Weather History Graph

Daily Weather History Graph

Search for Another Location

Airport or City:

Trip Planner

Search our weather history database for the weather conditions in past years. The results will help you decide how hot, cold, wet, or windy it might be!

Date:

Astronomy

Mar. 17, 2013 Rise Set
Actual Time 8:02 AM CDT 8:03 PM CDT
Civil Twilight 7:31 AM CDT 8:34 PM CDT
Nautical Twilight 6:55 AM CDT 9:10 PM CDT
Astronomical Twilight 6:18 AM CDT 9:48 PM CDT
Moon 10:52 AM CDT (3/17) 1:38 AM CDT (3/17)
Length of Visible Light 13h 02m
Length of Day
12h 00m
Waxing Crescent, 31% of the Moon is Illuminated
Mar 17
Waxing Crescent
Mar 19
First Quarter
Mar 27
Full
Apr 2
Last Quarter
Apr 10
New

Hourly Weather History & Observations

Time (CDT) Temp. Windchill Dew Point Humidity Pressure Visibility Wind Dir Wind Speed Gust Speed Precip Events Conditions
12:52 AM 12.0 °F -2.0 °F 7.0 °F 80% 30.10 in 10.0 mi SE 11.5 mph 18.4 mph N/A   Overcast
1:52 AM 12.0 °F -2.0 °F 7.0 °F 80% 30.05 in 10.0 mi SE 11.5 mph - N/A   Overcast
2:52 AM 12.9 °F -0.9 °F 8.1 °F 81% 30.01 in 10.0 mi SE 11.5 mph - N/A   Overcast
3:18 AM 12.2 °F 0.7 °F 8.6 °F 85% 29.87 in 10.0 mi SE 8.1 mph - N/A   Overcast
3:52 AM 15.1 °F 1.1 °F 10.0 °F 80% 29.97 in 10.0 mi SSE 12.7 mph - N/A   Overcast
4:52 AM 16.0 °F 2.3 °F 10.9 °F 81% 29.91 in 10.0 mi SE 12.7 mph - N/A   Overcast
5:52 AM 16.0 °F 2.9 °F 12.0 °F 84% 29.86 in 10.0 mi SE 11.5 mph - N/A   Overcast
6:44 AM 17.6 °F 4.3 °F 12.2 °F 79% 29.71 in 10.0 mi SE 12.7 mph 18.4 mph N/A   Overcast
6:52 AM 17.1 °F 2.5 °F 12.9 °F 84% 29.81 in 10.0 mi SE 15.0 mph 23.0 mph N/A   Overcast
7:52 AM 18.0 °F 6.1 °F 14.0 °F 84% 29.78 in 10.0 mi SSE 10.4 mph - N/A   Overcast
8:52 AM 18.0 °F 4.8 °F 15.1 °F 88% 29.75 in 10.0 mi SSE 12.7 mph - N/A   Overcast
9:52 AM 18.0 °F 4.8 °F 16.0 °F 92% 29.72 in 10.0 mi SE 12.7 mph 19.6 mph N/A   Overcast
10:52 AM 19.9 °F 6.7 °F 17.1 °F 89% 29.70 in 10.0 mi SSE 13.8 mph - N/A   Overcast
11:52 AM 19.9 °F 6.7 °F 17.1 °F 89% 29.64 in 10.0 mi SE 13.8 mph 23.0 mph N/A   Overcast
12:52 PM 21.0 °F 7.6 °F 17.1 °F 85% 29.62 in 10.0 mi SSE 15.0 mph 21.9 mph N/A   Overcast
1:52 PM 21.9 °F 8.2 °F 18.0 °F 85% 29.59 in 10.0 mi SSE 16.1 mph 19.6 mph N/A   Overcast
2:40 PM 23.0 °F 11.7 °F 19.4 °F 86% 29.48 in 1.8 mi SSE 11.5 mph 18.4 mph 0.00 in Snow Light Snow
2:52 PM 23.0 °F 12.4 °F 19.9 °F 88% 29.58 in 0.8 mi South 10.4 mph - 0.00 in Snow Light Snow
3:00 PM 23.0 °F 13.1 °F 21.2 °F 93% 29.47 in 0.2 mi SSE 9.2 mph - 0.01 in Fog , Snow Heavy Snow
3:11 PM 23.0 °F 13.9 °F 21.2 °F 93% 29.47 in 0.5 mi SSE 8.1 mph - 0.03 in Fog , Snow Snow
3:34 PM 21.2 °F 10.9 °F 21.2 °F 100% 29.47 in 0.5 mi SSE 9.2 mph - 0.04 in Fog , Snow Snow
3:38 PM 21.2 °F 12.6 °F 21.2 °F 100% 29.47 in 0.2 mi SE 6.9 mph - 0.05 in Fog , Snow Snow
3:52 PM 21.9 °F 14.5 °F 21.0 °F 96% 29.57 in 0.2 mi SE 5.8 mph - 0.08 in Fog , Snow Heavy Snow
4:44 PM 23.0 °F 17.0 °F 21.2 °F 93% 29.47 in 0.5 mi ESE 4.6 mph - 0.10 in Fog , Snow Snow
4:52 PM 23.0 °F 17.0 °F 21.0 °F 92% 29.57 in 0.5 mi East 4.6 mph - 0.11 in Fog , Snow Snow
5:00 PM 23.0 °F 17.0 °F 21.2 °F 93% 29.47 in 0.2 mi East 4.6 mph - 0.00 in Fog , Snow Snow
5:17 PM 23.0 °F 18.4 °F 21.2 °F 93% 29.48 in 0.5 mi NE 3.5 mph - 0.02 in Fog , Snow Snow
5:23 PM 23.0 °F 17.0 °F 21.2 °F 93% 29.48 in 0.2 mi NE 4.6 mph - 0.03 in Fog , Snow Snow
5:29 PM 23.0 °F 18.4 °F 21.2 °F 93% 29.48 in 0.5 mi NNE 3.5 mph - 0.04 in Fog , Snow Snow
5:52 PM 23.0 °F 18.4 °F 21.0 °F 92% 29.59 in 0.2 mi NE 3.5 mph - 0.06 in Fog , Snow Snow
6:00 PM 23.0 °F - 21.2 °F 93% 29.49 in 0.5 mi Calm Calm - 0.01 in Fog , Snow Snow
6:21 PM 21.2 °F 16.4 °F 21.2 °F 100% 29.51 in 1.2 mi NNW 3.5 mph - 0.02 in Snow Light Snow
6:52 PM 21.9 °F 13.4 °F 19.9 °F 92% 29.62 in 1.8 mi NW 6.9 mph - 0.02 in Snow Light Snow
6:58 PM 21.2 °F 11.7 °F 19.4 °F 93% 29.53 in 2.0 mi WNW 8.1 mph - 0.00 in Snow Light Snow
7:15 PM 21.2 °F 8.3 °F 19.4 °F 93% 29.54 in 3.0 mi NW 13.8 mph - 0.00 in Snow Light Snow
7:27 PM 21.2 °F 6.4 °F 17.6 °F 86% 29.55 in 4.0 mi NW 18.4 mph 26.5 mph 0.00 in Snow Light Snow
7:36 PM 21.2 °F 4.2 °F 17.6 °F 86% 29.55 in 3.0 mi WNW 25.3 mph 33.4 mph 0.00 in Snow Light Snow
7:41 PM 17.6 °F -1.0 °F 15.8 °F 93% 29.56 in 2.0 mi NW 26.5 mph 33.4 mph 0.00 in Snow Light Snow
7:52 PM 17.1 °F -2.7 °F 15.1 °F 92% 29.67 in 2.5 mi NW 29.9 mph 35.7 mph 0.00 in Snow Light Snow
8:01 PM 15.8 °F -4.4 °F 12.2 °F 86% 29.57 in 1.2 mi NW 29.9 mph 38.0 mph 0.00 in Snow Light Snow
8:17 PM 15.8 °F -3.7 °F 12.2 °F 86% 29.59 in 3.0 mi NW 27.6 mph 35.7 mph 0.00 in Snow Light Snow
8:29 PM 15.8 °F -4.1 °F 12.2 °F 86% 29.60 in 2.5 mi NW 28.8 mph 38.0 mph 0.00 in Snow Light Snow
8:52 PM 14.0 °F -7.7 °F 12.0 °F 92% 29.73 in 2.0 mi NW 33.4 mph 40.3 mph 0.00 in Snow Light Snow
8:58 PM 14.0 °F -7.4 °F 10.4 °F 86% 29.63 in 1.5 mi NNW 32.2 mph 42.6 mph N/A Snow Light Snow
9:18 PM 12.2 °F -9.3 °F 10.4 °F 92% 29.65 in 1.8 mi NNW 29.9 mph 36.8 mph 0.00 in Snow Light Snow
9:24 PM 12.2 °F -8.2 °F 8.6 °F 85% 29.66 in 1.8 mi NNW 26.5 mph 36.8 mph 0.00 in Snow Light Snow
9:31 PM 12.2 °F -8.9 °F 8.6 °F 85% 29.67 in 1.2 mi NW 28.8 mph 35.7 mph 0.00 in Snow Light Snow
9:52 PM 10.9 °F -10.3 °F 8.1 °F 88% 29.80 in 1.0 mi NW 27.6 mph 36.8 mph 0.00 in Snow Light Snow
10:05 PM 10.4 °F -12.0 °F 8.6 °F 92% 29.70 in 0.8 mi NNW 31.1 mph 39.1 mph 0.00 in Snow Light Snow
10:16 PM 10.4 °F -10.3 °F 8.6 °F 92% 29.70 in 1.2 mi NNW 25.3 mph 33.4 mph 0.00 in Snow Light Snow
10:52 PM 9.0 °F -13.0 °F 6.1 °F 88% 29.84 in 1.0 mi NW 27.6 mph 36.8 mph 0.00 in Snow Light Snow
11:05 PM 8.6 °F -13.8 °F 6.8 °F 92% 29.73 in 1.2 mi NW 28.8 mph 34.5 mph 0.00 in Snow Light Snow
11:24 PM 8.6 °F -14.8 °F 3.2 °F 79% 29.75 in 1.0 mi NW 32.2 mph - 0.00 in Snow Light Snow
11:35 PM 6.8 °F -16.9 °F 3.2 °F 85% 29.76 in 1.0 mi NW 31.1 mph 41.4 mph 0.00 in Snow Light Snow
11:52 PM 7.0 °F -16.0 °F 3.0 °F 84% 29.89 in 1.0 mi NW 28.8 mph 35.7 mph 0.00 in Snow Light Snow